Le nostre stazioni meteo in Italia

Pubblicità
Il mio iltempo24.it
Comiso, Italia (16475): Temperatura & dewpoint: 19.06.2019 20:00:00 - 25.06.2019 20:00:00 (CEST)Comiso, Italia (16475): velocità del vento: 19.06.2019 20:00:00 - 25.06.2019 20:00:00 (CEST)Comiso, Italia (16475): direzione del vento: 19.06.2019 20:00:00 - 25.06.2019 20:00:00 (CEST)Comiso, Italia (16475): visibility: 19.06.2019 20:00:00 - 25.06.2019 20:00:00 (CEST)
Data & Tempo tt [°C] td [°C] ff [km/h] ff [kn] dd vv [km]
25.06.2019 20:00:00 28,0 14,0 9 5 O 10
25.06.2019 19:00:00 29,0 12,0 15 8 O 10
25.06.2019 18:00:00 31,0 11,0 13 7 O 10
25.06.2019 17:00:00 31,0 12,0 11 6 O 10
25.06.2019 16:00:00 30,0 13,0 15 8 O 10
25.06.2019 15:00:00 31,0 14,0 16 9 OSO 10
25.06.2019 14:00:00 31,0 14,0 21 11 O 10
25.06.2019 13:00:00 31,0 14,0 16 9 OSO 10
25.06.2019 12:00:00 31,0 13,0 16 9 OSO 10
25.06.2019 11:00:00 30,0 15,0 11 6 SO 10
25.06.2019 10:00:00 29,0 16,0 9 5 - 10
25.06.2019 09:00:00 28,0 17,0 5 3 O 10
25.06.2019 08:00:00 25,0 17,0 4 2 - 10
25.06.2019 07:00:00 22,0 16,0 4 2 - 10
25.06.2019 06:00:00 18,0 14,0 5 3 E 10
25.06.2019 05:00:00 18,0 14,0 5 3 E 10
25.06.2019 04:00:00 19,0 15,0 5 3 E 10
25.06.2019 03:00:00 19,0 15,0 5 3 ENE 10
25.06.2019 02:00:00 22,0 15,0 2 1 - 10
25.06.2019 01:00:00 22,0 16,0 4 2 - 10
25.06.2019 00:00:00 23,0 16,0 8 4 NNE 10
24.06.2019 23:00:00 24,0 18,0 4 2 - 10
24.06.2019 22:00:00 26,0 17,0 2 1 - 10
24.06.2019 21:00:00 27,0 15,0 8 4 NNO 10
24.06.2019 20:00:00 29,0 14,0 11 6 ONO 10
24.06.2019 19:00:00 32,0 15,0 15 8 O 10
24.06.2019 18:00:00 33,0 15,0 15 8 O 10
24.06.2019 17:00:00 34,0 13,0 15 8 O 10
24.06.2019 16:00:00 35,0 12,0 21 11 O 10
24.06.2019 15:00:00 36,0 11,0 21 11 SO 10
24.06.2019 14:00:00 37,0 10,0 15 8 SO 10
24.06.2019 13:00:00 36,0 7,0 16 9 OSO 10
24.06.2019 12:00:00 36,0 6,0 21 11 O 10
24.06.2019 11:00:00 36,0 6,0 13 7 OSO 10
24.06.2019 10:00:00 34,0 7,0 9 5 ONO 10
24.06.2019 09:00:00 32,0 7,0 5 3 - 10
24.06.2019 08:00:00 30,0 10,0 5 3 ESE 10
24.06.2019 07:00:00 25,0 11,0 5 3 E 10
24.06.2019 06:00:00 23,0 9,0 9 5 E 10
24.06.2019 05:00:00 20,0 9,0 5 3 E 10
24.06.2019 04:00:00 21,0 8,0 8 4 E 10
24.06.2019 03:00:00 21,0 8,0 5 3 E 6
24.06.2019 02:00:00 21,0 7,0 5 3 ENE 10
24.06.2019 01:00:00 22,0 6,0 11 6 ENE 10
24.06.2019 00:00:00 22,0 8,0 4 2 ENE 10
23.06.2019 23:00:00 23,0 11,0 5 3 ENE 10
23.06.2019 22:00:00 24,0 11,0 5 3 SO 10
23.06.2019 21:00:00 26,0 11,0 4 2 - 10
23.06.2019 20:00:00 - - - - - -
23.06.2019 19:00:00 32,0 8,0 15 8 OSO 10
23.06.2019 18:00:00 - - - - - -
23.06.2019 17:00:00 34,0 8,0 15 8 SO 10
23.06.2019 16:00:00 35,0 4,0 21 11 OSO 10
23.06.2019 15:00:00 37,0 2,0 16 9 SO 10
23.06.2019 14:00:00 37,0 2,0 16 9 OSO 10
23.06.2019 13:00:00 37,0 5,0 13 7 OSO 10
23.06.2019 12:00:00 35,0 4,0 8 4 SSO 10
23.06.2019 11:00:00 33,0 3,0 9 5 - 10
23.06.2019 10:00:00 31,0 4,0 13 7 N 10
23.06.2019 09:00:00 30,0 3,0 8 4 OSO 10
23.06.2019 08:00:00 28,0 7,0 2 1 - 10
23.06.2019 07:00:00 22,0 8,0 8 4 ENE 10
23.06.2019 06:00:00 19,0 8,0 5 3 ENE 10
23.06.2019 05:00:00 19,0 8,0 11 6 NE 10
23.06.2019 04:00:00 19,0 9,0 9 5 NE 10
23.06.2019 03:00:00 20,0 8,0 9 5 ENE 10
23.06.2019 02:00:00 20,0 8,0 8 4 ENE 10
23.06.2019 01:00:00 21,0 8,0 8 4 ENE 10
23.06.2019 00:00:00 21,0 9,0 5 3 ENE 10
22.06.2019 23:00:00 22,0 9,0 4 2 E 10
22.06.2019 22:00:00 24,0 8,0 2 1 ENE 10
22.06.2019 21:00:00 27,0 8,0 4 2 - 10
22.06.2019 20:00:00 30,0 6,0 8 4 SO 10
22.06.2019 19:00:00 32,0 6,0 13 7 O 10
22.06.2019 18:00:00 34,0 3,0 8 4 OSO 10
22.06.2019 17:00:00 35,0 3,0 13 7 OSO 10
22.06.2019 16:00:00 36,0 4,0 21 11 O 10
22.06.2019 15:00:00 36,0 8,0 15 8 OSO 10
22.06.2019 14:00:00 36,0 7,0 13 7 O 10
22.06.2019 13:00:00 36,0 8,0 9 5 - 10
22.06.2019 12:00:00 34,0 8,0 13 7 OSO 10
22.06.2019 11:00:00 33,0 7,0 8 4 - 10
22.06.2019 10:00:00 32,0 3,0 4 2 - 10
22.06.2019 09:00:00 28,0 7,0 4 2 - 10
22.06.2019 08:00:00 26,0 12,0 4 2 - 10
22.06.2019 07:00:00 22,0 12,0 4 2 - 10
22.06.2019 06:00:00 19,0 12,0 11 6 NE 10
22.06.2019 05:00:00 20,0 12,0 8 4 ENE 10
22.06.2019 04:00:00 19,0 12,0 11 6 NE 10
22.06.2019 03:00:00 20,0 12,0 4 2 E 10
22.06.2019 02:00:00 21,0 12,0 8 4 E 10
22.06.2019 01:00:00 20,0 12,0 5 3 E 10
22.06.2019 00:00:00 21,0 12,0 5 3 ENE 10
21.06.2019 23:00:00 23,0 12,0 5 3 NE 10
21.06.2019 22:00:00 26,0 11,0 4 2 - 10
21.06.2019 21:00:00 27,0 9,0 8 4 OSO 10
21.06.2019 20:00:00 30,0 11,0 5 3 SSO 10
21.06.2019 19:00:00 31,0 11,0 9 5 OSO 10
21.06.2019 18:00:00 33,0 10,0 15 8 OSO 10
21.06.2019 17:00:00 35,0 8,0 15 8 O 10
21.06.2019 16:00:00 35,0 6,0 13 7 O 10
21.06.2019 15:00:00 35,0 6,0 16 9 O 10
21.06.2019 14:00:00 35,0 10,0 13 7 O 10
21.06.2019 13:00:00 34,0 10,0 8 4 OSO 10
21.06.2019 12:00:00 33,0 10,0 9 5 ONO 10
21.06.2019 11:00:00 30,0 11,0 4 2 - 10
21.06.2019 10:00:00 - - - - - -
21.06.2019 09:00:00 27,0 12,0 8 4 O 10
21.06.2019 08:00:00 25,0 10,0 4 2 - 10
21.06.2019 07:00:00 20,0 8,0 9 5 NE 10
21.06.2019 06:00:00 - - - - - -
21.06.2019 05:00:00 17,0 8,0 5 3 E 10
21.06.2019 04:00:00 19,0 8,0 8 4 ENE 10
21.06.2019 03:00:00 20,0 7,0 8 4 NE 10
21.06.2019 02:00:00 17,0 11,0 5 3 ENE 10
21.06.2019 01:00:00 19,0 12,0 8 4 NE 10
21.06.2019 00:00:00 19,0 15,0 5 3 ENE 10
20.06.2019 23:00:00 21,0 16,0 5 3 ENE 10
20.06.2019 22:00:00 23,0 17,0 2 1 - 10
20.06.2019 21:00:00 24,0 17,0 2 1 - 10
20.06.2019 20:00:00 26,0 16,0 8 4 OSO 10
20.06.2019 19:00:00 28,0 15,0 15 8 OSO 10
20.06.2019 18:00:00 29,0 16,0 18 10 OSO 10
20.06.2019 17:00:00 30,0 16,0 21 11 OSO 10
20.06.2019 16:00:00 31,0 15,0 21 11 OSO 10
20.06.2019 15:00:00 31,0 16,0 16 9 SO 10
20.06.2019 14:00:00 31,0 17,0 21 11 OSO 10
20.06.2019 13:00:00 31,0 14,0 15 8 OSO 10
20.06.2019 12:00:00 32,0 10,0 4 2 - 10
20.06.2019 11:00:00 30,0 13,0 8 4 - 10
20.06.2019 10:00:00 29,0 12,0 9 5 OSO 10
20.06.2019 09:00:00 27,0 12,0 5 3 OSO 10
20.06.2019 08:00:00 25,0 14,0 2 1 - 10
20.06.2019 07:00:00 19,0 14,0 8 4 E 10
20.06.2019 06:00:00 17,0 13,0 5 3 ENE 10
20.06.2019 05:00:00 17,0 12,0 4 2 - 10
20.06.2019 04:00:00 - - - - - -
20.06.2019 03:00:00 18,0 13,0 5 3 ENE 10
20.06.2019 02:00:00 18,0 14,0 9 5 NE 10
20.06.2019 01:00:00 19,0 15,0 8 4 NE 10
20.06.2019 00:00:00 20,0 15,0 4 2 NE 10
19.06.2019 23:00:00 21,0 15,0 4 2 ENE 10
19.06.2019 22:00:00 22,0 15,0 4 2 - 10
19.06.2019 21:00:00 24,0 14,0 4 2 ONO 10
19.06.2019 20:00:00 26,0 14,0 4 2 - 10

tt = Temperatura
td = dewpoint
ff = velocità del vento
dd = direzione del vento
vv = visibility

Stazioni seguenti

WeatherPro
AMSI
MeteoEarth